CAPE
0 0 0 0 0 0 0 0 0 0 0 0 0 0 0 0 0 0 0 0 0 0 0 0 0 0 0 0 0 0 610 1448 1591 2068 2174 2064 2050 2317 2437 2650 2754 2752 2594 2536 2598 2431 1958 1775 1557 1268 1058 1020 1051 1077 1200 1236 1156 1089 1156 1245 1315 1272 1231 1131 1112 1033 840 770 725 763 722 592 565 732 836 894 948 1041 1132 1084 893 726 853 866 830 1070
0 0 0 0 0 0 0 0 0 0 0 0 0 0 0 0 0 0 0 0 0 0 0 0 0 0 0 0 0 0 27 1196 1517 1754 2042 2083 2114 2323 2384 2360 2516 2390 2407 2498 2480 2376 1895 1533 1327 1264 1066 1044 878 860 1052 1116 1216 1197 1141 1205 1268 1240 1234 1210 1170 955 882 841 799 804 692 584 592 651 728 733 802 793 963 1024 880 750 988 974 998 1106
0 0 0 0 0 0 0 0 0 0 0 0 0 0 0 0 0 0 0 0 0 0 0 0 0 0 0 0 0 0 0 821 1278 1527 1883 1972 2105 2267 2333 2360 2319 2318 2401 2530 2484 2232 1678 1277 1210 1184 1125 1088 813 966 1185 1305 1232 1237 1153 1196 1214 1230 1225 1315 1234 1102 1088 954 842 715 641 616 600 710 746 797 796 897 878 824 794 871 1033 1092 1107 1018
0 0 0 0 0 0 0 0 0 0 0 1 0 0 0 0 0 0 0 0 0 0 0 0 0 0 0 274 393 124 0 497 1148 1422 1673 1804 2102 2195 2236 2251 2354 2361 2513 2502 2250 1870 1479 1229 1223 1218 1177 1103 883 1008 1279 1413 1347 1199 1179 1271 1170 1151 1257 1293 1225 1209 1115 919 770 618 632 620 689 726 763 872 888 984 968 880 930 955 1067 1061 972 928
0 0 0 0 0 0 0 0 0 0 3 2 0 0 0 0 0 0 0 0 0 0 0 0 0 0 0 0 82 554 202 540 1081 1379 1570 1686 1945 2006 2052 2164 2321 2415 2435 2287 1953 1630 1290 1206 1248 1232 1209 1129 1031 1084 1328 1469 1373 1332 1376 1338 1187 1151 1282 1254 1177 1057 899 797 740 696 710 677 641 674 866 956 1008 1079 1062 1024 1092 1110 1184 1146 966 826
0 0 0 0 0 0 0 0 0 2 4 3 1 0 0 0 0 0 0 0 0 0 0 0 0 0 0 402 530 811 626 897 1118 1333 1453 1625 1810 1961 2024 2163 2324 2369 2237 2114 1773 1469 1206 1182 1188 1200 1226 1172 1076 1182 1358 1476 1416 1424 1466 1329 1168 1135 1214 1164 1035 861 870 901 748 743 640 621 686 869 955 1004 968 969 992 1068 1093 1010 1075 1081 853 713
0 0 0 0 0 0 0 0 2 1 5 2 3 0 0 0 0 0 7 0 0 0 0 0 0 5 18 193 590 690 835 938 1159 1244 1384 1507 1672 1828 1961 2188 2246 2012 1964 1765 1444 1248 1199 1195 1177 1106 1056 1032 1091 1255 1381 1430 1445 1450 1539 1394 1213 1150 1108 1056 1077 1099 1103 758 734 563 580 664 828 953 945 926 933 907 915 985 942 826 798 763 684 608
0 0 0 0 0 0 0 0 2 1 2 3 0 0 0 0 0 2 4 0 0 0 7 0 0 4 0 20 648 664 902 1018 1121 1196 1277 1401 1599 1775 1973 2120 2090 1908 1694 1413 1298 1182 1186 1167 1082 971 801 913 1125 1286 1384 1428 1442 1458 1584 1465 1265 1239 1260 1272 1307 1305 1063 708 688 584 608 712 791 734 678 731 756 709 724 792 680 630 668 597 464 402
0 0 0 0 0 0 2 1 0 0 0 0 0 0 0 0 0 1 0 0 2 0 10 0 19 0 0 242 676 792 819 1026 1106 1162 1195 1338 1550 1762 1926 2078 1942 1734 1476 1256 1291 1163 1087 1012 965 785 826 939 1127 1300 1402 1421 1414 1437 1550 1497 1282 1302 1352 1417 1482 1394 894 708 673 598 601 664 634 542 509 518 451 391 403 476 439 518 494 338 293 296
0 0 0 0 0 0 0 10 0 0 0 2 0 0 0 0 0 0 6 0 3 0 17 9 11 0 0 450 720 634 847 950 1092 1112 1155 1354 1542 1682 1828 1739 1698 1595 1352 1257 1203 1160 1021 923 989 939 831 932 1116 1280 1426 1379 1348 1395 1362 1226 1172 1233 1209 1428 1485 1280 845 676 671 665 603 677 547 473 403 346 297 315 316 327 356 393 278 206 196 148
0 0 0 0 0 0 0 15 7 13 19 11 0 15 9 0 0 0 2 0 0 0 9 2 29 4 0 192 557 624 674 855 1013 1100 1236 1420 1606 1728 1770 1639 1633 1576 1357 1195 1087 1072 1021 963 1057 971 860 910 1077 1213 1360 1359 1314 1348 1165 1064 865 1060 1196 1347 1392 1096 982 764 752 724 697 605 476 363 259 228 246 182 215 306 327 244 138 161 155 126
0 0 0 0 0 0 0 11 0 8 18 15 0 0 0 0 0 0 0 0 0 0 2 0 0 0 1 113 346 539 342 445 962 1180 1354 1504 1645 1667 1619 1620 1555 1311 1054 840 786 916 970 1032 1084 919 862 935 993 1121 1203 1304 1377 1347 1157 926 943 867 1130 1226 1080 1096 972 939 694 704 755 554 376 234 176 249 162 124 186 229 232 181 155 146 66 0
0 0 0 0 0 0 0 0 0 0 0 0 0 0 0 0 0 0 0 0 0 0 0 0 0 0 304 534 645 505 488 384 842 1286 1443 1529 1559 1515 1518 1453 1290 1012 813 690 863 978 927 1142 1071 937 868 920 974 1072 1102 1142 1314 1358 1159 1123 973 748 873 1042 864 891 936 1016 796 578 685 587 346 158 205 259 166 180 198 224 206 158 118 7 0 0
0 0 0 0 0 0 0 0 0 0 0 0 0 0 0 0 0 0 0 6 0 0 0 0 0 142 194 494 598 657 598 459 933 1128 1301 1327 1286 1275 1319 1322 1196 990 843 785 928 975 911 1092 1070 946 879 925 985 1073 1112 1141 1200 1382 1267 1106 1045 800 722 869 885 869 947 1001 967 721 629 531 412 227 233 219 150 140 140 113 90 38 0 0 0 0
0 0 0 0 0 0 0 0 0 6 1 0 0 0 0 0 0 0 0 58 8 9 1 0 0 0 408 417 698 758 706 793 942 1087 1158 1169 1289 1199 1124 1138 1015 885 878 863 907 935 994 980 1043 960 907 937 972 1022 1092 1122 1156 1306 1309 1189 1117 962 750 948 1063 909 841 816 833 788 638 544 447 294 230 0 0 0 0 0 0 0 0 0 0 0
0 0 0 0 0 0 0 0 0 0 0 0 0 0 0 0 0 0 6 2 13 0 0 354 341 497 591 827 911 973 890 872 904 934 1159 1191 1036 937 982 954 880 890 970 1000 927 964 1016 945 958 943 884 946 970 971 1024 1060 1032 1076 1208 1227 1176 1147 985 1096 996 936 812 668 636 642 629 580 454 276 126 0 130 114 91 48 0 0 0 0 0 0
0 0 0 0 0 0 2 2 0 0 1 0 0 0 0 0 0 0 0 0 15 2 1 450 439 638 648 791 946 1129 932 946 916 927 1036 1082 1093 1021 958 881 1001 1135 980 1018 972 1009 1046 1010 900 862 860 895 974 988 955 921 999 962 1000 1092 1101 1049 943 1010 908 935 952 598 554 585 584 485 266 192 91 123 131 134 84 58 0 0 0 0 0 0
0 0 0 0 0 0 0 0 0 0 0 0 0 0 0 0 10 8 34 6 36 17 125 225 545 500 626 535 976 1020 1047 938 886 970 976 1046 1067 856 845 902 1182 1248 1032 1001 1057 1115 1166 1119 994 919 890 875 971 1080 1052 953 906 981 944 932 927 935 762 810 744 660 1047 870 743 651 482 340 269 228 306 320 221 80 0 0 0 0 0 0 0 0
0 0 0 0 0 0 0 0 0 0 0 0 0 0 7 54 95 9 0 23 11 0 8 50 493 464 516 648 792 965 920 829 807 896 917 986 881 746 258 779 1052 1161 996 996 1133 1250 1312 1291 1066 984 946 920 987 1107 1116 1070 1012 942 937 955 897 838 734 618 735 867 1005 752 667 407 399 449 518 469 476 383 165 14 0 22 0 0 0 0 0 0
0 0 0 0 0 0 0 0 0 0 0 0 0 0 0 0 0 5 0 0 0 0 0 15 301 438 437 628 656 834 883 814 976 914 927 905 924 866 739 714 623 679 697 441 963 1097 1170 1203 1110 978 990 1081 984 924 930 1022 1037 1068 1035 958 869 772 723 802 858 804 563 526 662 697 559 570 537 489 385 169 74 88 86 13 0 0 0 0 0 0
0 0 0 0 0 0 0 0 0 0 0 0 0 0 0 0 0 0 0 0 0 0 0 52 168 257 308 458 632 819 792 761 846 875 772 630 737 838 573 162 495 585 687 972 1186 1115 1044 1157 697 792 924 1155 1064 968 1010 916 931 941 880 726 884 1044 608 731 645 583 410 467 514 666 671 607 522 358 127 0 0 0 0 0 0 0 0 0 0 0
0 0 0 0 0 0 0 0 0 0 0 0 0 0 0 0 0 0 0 0 0 0 0 0 72 261 311 280 445 676 662 725 786 743 532 117 266 195 120 143 712 855 1017 796 815 985 990 822 748 758 1048 1043 1079 900 842 1012 915 1038 864 917 979 1012 922 562 594 410 18 43 539 594 568 459 367 117 0 0 0 0 0 0 0 0 0 0 0 0
0 0 0 5 0 0 0 0 0 0 0 0 0 0 0 0 0 0 0 0 0 0 0 0 0 15 253 251 280 438 589 596 741 651 333 331 485 738 889 932 986 900 931 1008 970 931 904 1008 767 616 618 796 896 900 742 732 784 956 886 992 836 882 793 584 149 18 0 0 456 540 411 318 185 0 0 0 0 0 0 0 0 0 0 0 0 0
404 0 0 0 0 0 0 0 0 0 0 0 0 0 0 0 0 0 0 0 0 0 0 0 243 103 118 310 349 367 383 524 572 564 531 266 305 245 532 580 642 660 702 782 793 660 845 740 617 560 484 696 838 926 830 689 618 713 798 856 876 855 569 423 483 356 126 0 353 394 146 214 0 0 0 0 0 19 0 0 0 0 0 0 0 0
0 2 0 0 0 0 0 0 0 0 0 0 0 0 0 0 0 74 0 0 0 0 0 0 12 92 53 319 283 482 464 477 547 504 306 214 194 188 434 417 419 450 469 476 478 517 550 569 521 419 442 661 768 696 687 570 467 565 271 254 428 420 495 396 380 370 93 0 178 266 0 0 0 0 0 0 0 0 0 0 0 0 0 0 0 0
4 0 0 0 0 0 0 0 0 0 0 0 0 0 0 0 0 0 0 0 0 0 0 0 117 151 236 298 290 433 522 559 495 456 264 154 111 47 224 470 498 466 498 453 432 383 325 406 472 535 502 638 720 666 563 519 489 0 23 14 0 32 336 301 256 0 0 0 13 5 0 0 0 0 0 0 0 0 0 0 0 0 0 0 0 0
0 1 0 0 2 0 0 0 0 0 0 0 0 0 0 0 0 0 0 0 0 0 0 0 0 300 232 193 225 303 387 446 409 132 212 160 75 15 54 448 472 435 395 377 365 337 325 294 355 347 380 434 520 534 532 439 414 500 523 374 0 343 114 36 10 57 88 67 10 21 0 83 143 36 0 0 0 0 0 0 0 0 0 0 0 0
0 0 0 0 0 7 0 0 0 0 0 0 0 0 0 0 0 0 0 10 0 0 0 0 52 225 147 201 137 258 318 355 336 236 172 138 127 408 395 424 440 435 345 306 216 310 241 266 314 353 381 401 353 272 294 344 159 140 117 40 225 186 287 354 335 368 356 298 31 46 16 0 87 97 64 29 0 0 0 0 0 0 0 0 0 0
0 0 0 0 0 0 0 0 0 0 0 0 0 0 0 0 0 0 0 0 0 0 1 64 194 188 214 198 104 195 282 264 240 194 130 142 135 440 419 406 409 321 307 258 38 23 33 241 301 282 352 399 390 385 365 381 178 231 29 27 198 50 316 91 134 276 276 191 168 139 95 18 120 82 12 2 0 0 0 0 0 0 0 0 0 0
0 0 0 0 0 0 0 0 6 0 0 0 0 0 0 2 0 0 0 0 0 3 32 103 161 37 142 147 66 104 186 194 200 161 206 193 137 307 355 164 6 38 30 34 55 32 0 10 320 268 268 306 322 354 378 407 315 291 348 338 300 0 0 0 149 321 0 146 252 16 193 149 92 29 74 0 0 0 0 0 0 0 0 0 0 0
0 1 0 1 1 1 0 0 0 0 0 5 0 0 0 0 5 1 0 0 0 5 0 72 22 100 30 68 136 118 87 132 178 222 191 203 161 43 86 95 18 15 24 67 90 141 197 235 0 129 314 338 340 397 420 362 337 340 337 366 394 376 316 225 28 318 246 263 0 0 0 52 82 0 0 171 156 75 101 127 175 165 1 6 2 0
0 0 0 1 0 0 0 0 0 0 0 3 7 0 0 0 1 1 0 0 0 6 39 69 34 19 2 30 93 60 33 70 40 57 46 43 86 69 94 55 26 116 116 95 93 137 183 69 6 74 190 215 298 314 312 329 337 383 382 374 304 236 250 268 254 247 219 100 0 0 0 268 250 139 65 125 0 168 177 140 105 162 74 1 0 0
1 0 0 0 0 0 4 0 0 0 0 0 0 0 0 0 3 2 0 1 0 0 0 6 10 35 2 31 16 92 128 68 36 64 78 125 123 84 91 47 46 168 169 101 104 119 142 186 122 1 2 0 204 220 123 277 382 368 312 312 272 271 318 327 326 334 288 310 350 411 309 283 260 200 323 319 101 0 0 1 0 48 0 0 6 2
0 0 0 0 0 0 0 0 1 2 14 6 0 0 0 2 16 22 3 10 1 0 0 0 1 13 11 12 21 14 14 46 27 20 30 42 80 87 115 50 25 62 84 102 91 78 87 82 97 0 0 6 0 3 29 188 255 219 168 204 253 278 256 277 327 367 437 457 448 449 475 452 171 408 333 279 298 218 0 0 0 0 0 0 69 63
0 1 3 0 2 0 4 1 0 8 12 4 0 0 0 5 6 22 56 64 24 10 11 0 3 4 1 1 8 4 2 5 0 0 2 2 20 33 66 69 39 1 2 13 20 28 33 18 110 0 0 0 0 60 40 0 0 0 0 0 0 143 152 141 0 179 206 260 301 332 401 413 376 415 438 422 280 225 252 43 37 36 0 0 0 0
0 0 0 1 0 1 2 1 0 2 0 0 0 0 0 0 5 6 4 17 5 7 3 28 12 3 4 5 8 18 17 6 1 0 2 2 1 0 29 59 72 40 9 4 19 51 70 107 151 123 91 0 0 0 0 0 2 0 0 0 0 0 0 0 0 0 0 1 46 84 244 279 307 88 328 305 318 301 290 281 287 324 273 34 0 0
9 1 0 7 2 5 3 0 0 0 0 0 0 0 0 3 4 1 2 0 2 2 3 4 0 2 0 1 7 6 2 0 2 3 1 0 0 7 11 24 50 81 48 24 6 6 24 31 23 72 86 72 0 4 2 0 0 3 0 0 0 0 0 0 0 0 3 11 18 30 42 55 52 43 0 2 1 64 64 0 262 287 318 351 296 173
74 55 50 35 5 0 8 3 0 0 2 0 1 3 0 0 0 0 0 0 0 3 7 3 5 3 1 1 0 0 2 0 4 0 1 1 1 1 4 3 2 3 4 4 6 0 1 0 0 1 4 7 1 0 0 1 1 1 0 0 0 0 0 0 0 0 0 0 0 0 1 18 42 31 8 9 136 190 235 281 259 232 234 244 239 138
70 74 72 8 26 0 7 2 4 0 0 0 0 1 1 0 0 0 0 0 3 3 1 0 2 3 0 2 7 8 6 8 6 4 3 9 6 3 7 8 9 8 13 10 9 7 0 0 0 0 0 2 2 0 0 0 3 2 1 1 1 0 0 0 0 0 0 0 0 0 0 0 0 0 39 57 9 0 0 176 248 279 274 320 405 408
0 2 15 20 28 3 12 1 6 3 2 0 0 0 0 0 0 0 0 0 2 2 2 1 0 2 4 3 1 4 6 18 8 1 2 4 3 4 3 3 2 0 6 8 10 5 0 0 0 0 0 0 0 0 0 0 0 3 5 4 5 5 4 2 2 2 2 0 0 0 0 0 0 0 0 0 95 0 0 162 171 188 235 247 278 296
0 3 2 37 30 14 4 10 0 0 0 0 1 0 0 0 0 0 0 0 0 3 5 5 3 3 5 8 7 4 1 6 13 9 4 1 1 0 0 0 0 0 1 0 1 0 0 0 0 0 0 0 0 0 0 0 0 0 3 2 2 4 6 4 4 3 3 4 2 0 0 0 0 0 0 0 0 0 0 1 97 170 224 214 240 233
0 0 0 0 11 14 8 10 0 0 0 0 0 0 0 0 0 0 0 0 0 2 2 1 0 0 0 1 2 1 0 1 2 4 8 8 5 0 0 0 0 0 0 0 0 0 0 0 0 0 0 1 2 2 5 4 3 6 10 10 10 4 2 2 2 3 4 3 1 0 0 0 0 0 0 0 0 0 0 0 0 0 0 128 176 210
0 0 0 0 0 0 0 0 0 2 0 0 0 0 1 1 0 0 0 0 1 2 2 0 0 0 0 0 0 0 0 0 0 0 1 0 0 0 0 0 0 0 0 0 0 0 0 0 0 0 0 0 2 4 4 2 3 2 2 3 3 3 3 3 3 4 3 2 0 0 0 0 0 0 0 0 0 0 0 0 0 0 0 0 38 45
0 0 0 0 0 0 0 0 0 0 0 0 0 0 0 0 0 0 0 0 0 0 1 1 0 0 0 1 0 0 0 0 0 0 0 0 0 0 0 0 0 0 0 0 0 0 0 0 0 0 0 0 0 0 2 2 2 1 0 0 0 0 4 6 7 6 4 5 7 8 6 3 5 3 0 0 0 0 0 0 0 0 0 0 0 0
0 0 0 1 0 0 0 0 0 0 0 0 0 0 0 1 0 1 0 1 4 2 0 0 0 0 0 0 0 0 0 1 0 0 0 0 0 0 0 0 0 0 0 0 0 0 0 0 0 0 0 0 0 0 0 0 1 2 2 0 0 0 1 3 5 4 3 4 5 4 2 3 6 12 14 14 9 1 0 0 0 0 0 0 0 0
0 0 1 0 0 0 0 2 1 0 0 0 0 0 0 0 0 0 0 0 1 4 2 6 3 1 1 1 0 0 0 0 0 0 0 0 0 0 0 0 0 0 0 0 0 0 0 0 0 0 0 0 0 0 0 0 0 0 1 4 4 4 2 3 2 2 2 2 1 2 7 8 11 12 16 17 23 27 20 12 4 0 0 0 0 0
0 0 0 3 1 2 0 0 0 0 1 1 0 0 1 0 0 0 0 0 2 8 10 6 6 3 0 1 1 0 0 2 2 0 0 0 0 0 0 0 0 0 0 0 0 0 0 0 0 0 0 0 0 0 0 0 0 0 0 0 0 0 0 1 2 1 0 0 0 0 1 2 4 7 8 10 14 14 14 15 10 2 1 0 0 0
0 0 0 0 0 0 0 3 1 2 3 4 4 3 2 0 1 2 2 0 0 1 6 10 10 6 0 0 0 0 0 0 0 0 0 0 0 0 0 0 0 0 0 0 0 0 0 0 0 0 0 0 0 0 0 0 0 0 0 0 0 0 0 0 0 0 0 0 0 0 0 0 0 0 0 0 0 0 0 0 0 0 0 0 0 0
0 0 0 0 0 0 0 0 3 5 5 4 6 8 7 2 2 9 9 5 3 0 0 0 0 0 0 0 0 0 0 0 0 0 0 0 0 0 0 0 0 0 0 0 0 0 0 0 0 0 0 0 0 0 0 0 0 0 0 0 0 0 0 0 0 0 0 0 0 0 0 0 0 0 0 0 0 0 0 0 0 0 0 0 0 0
0 0 0 0 0 0 0 0 0 0 0 0 5 4 6 3 3 3 6 8 5 3 1 0 0 0 0 0 0 0 0 0 0 0 0 0 0 0 0 0 0 0 0 0 0 0 0 0 0 0 0 0 0 0 0 0 0 0 0 0 0 0 0 0 0 0 0 0 0 0 0 0 0 0 0 0 0 0 0 0 0 0 0 0 0 0
0 0 0 0 0 0 0 0 0 0 0 0 0 0 0 0 0 0 2 2 2 0 0 0 0 2 1 0 0 0 0 0 0 0 0 0 0 0 0 0 0 0 0 0 0 0 0 0 0 0 0 0 0 0 0 0 0 0 0 0 0 0 0 0 0 0 0 0 0 0 0 0 0 0 0 0 0 0 0 0 0 0 0 0 0 0
Wind_Speed
nan nan nan nan nan nan nan nan nan nan nan nan nan nan nan nan nan nan nan nan nan nan nan nan nan nan nan nan nan nan 39 43 37 34 35 34 32 30 27 21 17 15 15 15 12 13 13 12 11 15 18 19 20 21 23 23 23 22 21 22 21 19 19 19 19 18 19 19 20 19 17 15 12 11 12 11 11 11 10 10 10 10 11 11 10 10
nan nan nan nan nan nan nan nan nan nan nan nan nan nan nan nan nan nan nan nan nan nan nan nan nan nan nan nan nan nan nan 37 33 34 34 33 29 25 23 20 18 19 21 16 13 13 13 12 14 18 21 21 22 22 23 23 24 22 21 21 20 19 18 18 18 19 19 18 18 18 16 16 13 11 10 10 9 9 9 9 9 10 11 11 11 10
nan nan nan nan nan nan nan nan nan nan nan nan nan nan nan nan nan nan nan nan nan nan nan nan nan nan nan nan nan nan nan 27 30 32 29 30 27 23 20 19 20 21 19 17 16 16 15 17 20 22 20 19 19 21 21 22 24 24 21 19 18 16 17 18 19 20 21 19 19 18 16 16 14 13 12 10 9 9 10 11 11 11 11 11 10 8
nan nan nan nan nan nan nan nan nan nan nan nan nan nan nan nan nan nan nan nan nan nan nan nan nan nan nan 28 33 35 nan 28 29 27 26 25 25 21 20 20 20 20 21 21 20 19 19 22 23 21 19 18 18 18 18 21 24 23 21 19 18 17 17 20 21 22 21 21 21 19 18 16 14 12 11 11 11 12 14 14 13 12 10 10 9 8
nan nan nan nan nan nan nan nan nan nan nan nan nan nan nan nan nan nan nan nan nan nan nan nan nan nan nan nan nan 35 34 34 34 31 26 21 20 19 21 21 17 20 23 22 22 22 24 25 24 21 19 18 18 18 18 20 22 21 22 21 21 19 19 21 23 23 22 22 22 19 18 17 18 17 13 11 13 14 14 15 13 11 10 10 10 9
nan nan nan nan nan nan nan nan nan nan nan nan nan nan nan nan nan nan nan nan nan nan nan nan nan nan nan 30 31 30 33 34 31 27 21 19 18 19 18 20 17 13 16 22 24 25 26 26 25 21 20 21 20 20 19 21 21 22 21 23 22 19 19 21 22 22 21 19 19 17 16 16 18 16 12 8 8 11 12 11 11 13 11 10 10 9
nan nan nan nan nan nan nan nan nan nan nan nan nan nan nan nan nan nan nan nan nan nan nan nan nan nan nan 28 31 27 26 29 29 26 21 18 18 19 18 19 16 13 13 15 21 24 26 26 25 23 24 25 23 20 20 21 21 21 19 21 19 17 19 21 20 19 19 19 19 19 20 20 19 17 13 11 11 11 12 13 12 12 12 10 10 10
nan nan nan nan nan nan nan nan nan nan nan nan nan nan nan nan nan nan nan nan nan nan nan nan nan nan nan nan 29 27 23 24 25 25 21 19 21 21 19 18 15 12 12 18 20 22 26 27 25 27 29 28 24 22 21 19 18 19 18 19 17 19 22 22 19 17 17 20 21 20 22 24 20 15 12 11 12 13 13 14 13 13 13 12 11 10
nan nan nan nan nan nan nan nan nan nan nan nan nan nan nan nan nan nan nan nan nan nan nan nan nan nan nan 27 30 28 25 20 18 19 20 20 22 21 18 16 15 15 16 19 21 23 27 29 28 29 30 27 23 21 19 17 17 17 18 21 23 24 23 22 18 16 17 20 20 18 20 21 17 15 14 12 13 14 15 16 16 15 14 13 12 10
nan nan nan nan nan nan nan nan nan nan nan nan nan nan nan nan nan nan nan nan nan nan nan nan nan nan nan 28 29 29 24 16 13 15 16 18 18 17 16 16 16 17 16 18 20 23 28 30 30 28 26 24 21 19 18 19 20 20 20 24 28 25 19 16 16 16 16 17 17 15 14 14 14 15 15 14 15 15 16 17 17 16 16 12 11 10
nan nan nan nan nan nan nan nan nan nan nan nan nan nan nan nan nan nan nan nan nan nan nan nan nan nan nan 24 23 26 20 18 19 21 18 18 17 17 18 17 16 17 18 19 20 25 30 32 29 26 23 20 20 19 19 20 21 21 22 22 20 19 15 13 10 12 13 14 16 16 15 14 15 16 15 16 17 17 17 18 18 18 18 15 13 13
nan nan nan nan nan nan nan nan nan nan nan nan nan nan nan nan nan nan nan nan nan nan nan nan nan nan nan 26 24 22 23 20 17 21 20 19 17 18 20 20 19 20 21 22 23 27 31 29 24 21 20 20 20 19 20 20 21 20 21 20 18 17 15 13 12 10 13 12 15 17 18 17 16 17 17 17 16 16 17 18 20 20 21 19 nan nan
nan nan nan nan nan nan nan nan nan nan nan nan nan nan nan nan nan nan nan nan nan nan nan nan nan nan 30 26 25 24 23 24 22 23 21 25 22 21 21 22 27 28 27 24 23 27 27 23 19 18 18 18 19 18 20 20 19 19 19 20 19 16 11 12 13 13 14 11 13 15 16 16 15 16 17 17 16 16 17 18 20 20 21 nan nan nan
nan nan nan nan nan nan nan nan nan nan nan nan nan nan nan nan nan nan nan nan nan nan nan nan nan 28 26 27 26 23 20 21 28 27 26 23 19 16 16 20 24 26 23 20 20 21 21 19 16 16 17 18 17 17 18 19 18 17 17 19 21 16 13 14 14 15 14 13 15 15 16 16 15 16 17 16 17 16 17 17 nan nan nan nan nan nan
nan nan nan nan nan nan nan nan nan nan nan nan nan nan nan nan nan nan nan nan nan nan nan nan nan nan 27 24 26 21 16 20 24 25 26 23 22 24 23 25 27 26 22 16 13 12 13 13 14 15 16 16 16 16 17 17 18 18 18 19 21 20 18 18 17 18 17 16 18 17 16 16 16 17 18 nan nan nan nan nan nan nan nan nan nan nan
nan nan nan nan nan nan nan nan nan nan nan nan nan nan nan nan nan nan nan nan nan nan nan 32 29 29 29 27 27 26 27 26 25 24 23 20 19 19 20 23 23 23 20 15 11 11 11 12 14 14 14 14 14 15 15 16 18 19 20 20 22 23 23 19 17 20 19 19 20 19 17 16 17 18 19 nan 21 20 nan nan nan nan nan nan nan nan
nan nan nan nan nan nan nan nan nan nan nan nan nan nan nan nan nan nan nan nan nan nan nan 32 32 32 31 33 36 34 36 32 29 27 26 24 21 21 19 20 22 21 16 13 11 12 13 15 16 16 15 14 15 15 14 15 16 19 21 22 24 26 24 21 22 22 21 20 20 17 16 16 18 18 nan 20 20 22 nan nan nan nan nan nan nan nan
nan nan nan nan nan nan nan nan nan nan nan nan nan nan nan nan nan nan nan nan nan nan 28 34 33 33 38 34 35 39 38 36 32 29 29 27 26 24 24 22 22 24 22 21 20 19 17 17 18 19 19 18 17 18 18 18 18 20 22 23 26 28 29 27 26 26 25 23 17 15 14 15 17 18 20 20 21 nan nan nan nan nan nan nan nan nan
nan nan nan nan nan nan nan nan nan nan nan nan nan nan nan nan nan nan nan nan nan nan nan nan 32 34 36 35 36 36 34 33 31 29 29 28 30 29 27 27 29 30 30 27 26 26 24 21 21 23 24 22 20 21 22 24 24 22 23 24 28 33 34 29 22 18 18 14 8 11 15 17 18 19 20 19 19 nan nan nan nan nan nan nan nan nan
nan nan nan nan nan nan nan nan nan nan nan nan nan nan nan nan nan nan nan nan nan nan nan nan 32 30 31 31 30 25 25 26 26 25 24 25 28 28 29 28 29 29 29 27 24 25 25 26 26 29 27 24 23 25 28 29 26 25 26 30 34 35 30 24 20 19 17 14 16 15 18 19 20 20 20 20 nan nan nan nan nan nan nan nan nan nan
nan nan nan nan nan nan nan nan nan nan nan nan nan nan nan nan nan nan nan nan nan nan nan nan 30 27 26 25 24 21 19 21 23 25 25 24 25 26 27 24 23 24 22 18 21 23 23 26 30 26 23 26 31 32 32 30 28 30 33 32 31 30 25 23 22 22 23 23 23 20 21 21 22 22 20 nan nan nan nan nan nan nan nan nan nan nan
nan nan nan nan nan nan nan nan nan nan nan nan nan nan nan nan nan nan nan nan nan nan nan nan nan 24 21 25 23 24 23 23 26 29 30 27 26 27 26 24 21 20 19 19 22 25 22 24 25 23 27 26 29 31 32 30 31 33 29 26 26 27 23 24 25 29 nan nan 29 27 25 23 21 20 nan nan nan nan nan nan nan nan nan nan nan nan
nan nan nan nan nan nan nan nan nan nan nan nan nan nan nan nan nan nan nan nan nan nan nan nan nan nan 24 24 24 24 23 25 29 31 30 24 24 26 26 25 23 22 20 21 24 23 22 23 24 26 27 28 28 29 29 29 29 29 27 25 24 25 24 26 28 nan nan nan 33 33 24 18 19 nan nan nan nan nan nan nan nan nan nan nan nan nan
34 nan nan nan nan nan nan nan nan nan nan nan nan nan nan nan nan nan nan nan nan nan nan nan 29 26 26 26 27 26 25 25 26 27 30 28 26 29 29 30 28 26 24 23 23 22 24 26 26 26 27 28 29 29 28 25 24 26 28 28 28 30 26 28 29 29 31 nan 31 27 22 19 nan nan nan nan nan nan nan nan nan nan nan nan nan nan
nan nan nan nan nan nan nan nan nan nan nan nan nan nan nan nan nan nan nan nan nan nan nan nan nan nan nan 26 26 26 26 26 25 25 25 28 25 29 32 31 30 27 23 23 24 26 27 28 28 27 27 27 28 28 29 27 23 24 27 29 31 31 27 25 25 26 nan nan 29 27 nan nan nan nan nan nan nan nan nan nan nan nan nan nan nan nan
nan nan nan nan nan nan nan nan nan nan nan nan nan nan nan nan nan nan nan nan nan nan nan nan 28 25 30 29 30 29 30 32 29 28 26 24 23 nan 26 28 27 25 24 25 27 27 27 26 25 26 26 27 26 27 26 25 24 nan nan nan nan nan 25 23 21 nan nan nan nan nan nan nan nan nan nan nan nan nan nan nan nan nan nan nan nan nan
nan nan nan nan nan nan nan nan nan nan nan nan nan nan nan nan nan nan nan nan nan nan nan nan nan 30 30 31 32 31 31 32 32 31 30 28 nan nan nan 23 22 23 24 26 25 25 25 24 24 25 25 26 27 25 24 23 25 25 25 26 nan 24 23 nan nan nan nan nan nan nan nan nan 26 nan nan nan nan nan nan nan nan nan nan nan nan nan
nan nan nan nan nan nan nan nan nan nan nan nan nan nan nan nan nan nan nan nan nan nan nan nan nan 35 31 32 32 31 31 32 32 31 30 28 27 24 24 25 26 26 26 26 26 26 26 25 25 24 24 25 27 27 26 25 25 24 24 nan 23 24 24 25 26 25 24 22 nan nan nan nan nan nan nan nan nan nan nan nan nan nan nan nan nan nan
nan nan nan nan nan nan nan nan nan nan nan nan nan nan nan nan nan nan nan nan nan nan nan nan 39 39 36 34 34 34 34 33 30 27 26 26 26 25 27 30 29 28 27 28 nan nan nan 26 24 24 23 22 24 25 25 24 24 24 nan nan 23 nan 22 nan 24 23 20 19 20 21 nan nan 21 nan nan nan nan nan nan nan nan nan nan nan nan nan
nan nan nan nan nan nan nan nan nan nan nan nan nan nan nan nan nan nan nan nan nan nan nan 46 47 nan 39 37 nan 35 32 32 30 27 26 29 30 28 31 32 nan nan nan nan nan nan nan nan 26 24 23 23 23 23 24 24 24 24 24 24 24 nan nan nan 22 22 nan 19 18 nan 16 14 nan nan nan nan nan nan nan nan nan nan nan nan nan nan
nan nan nan nan nan nan nan nan nan nan nan nan nan nan nan nan nan nan nan nan nan nan nan nan nan nan nan nan 41 36 nan 33 35 35 30 31 32 nan nan nan nan nan nan nan nan 29 28 28 nan 26 26 25 24 23 22 22 24 25 26 25 25 25 22 21 nan 20 20 19 nan nan nan nan nan nan nan 15 17 nan 11 14 13 12 nan nan nan nan
nan nan nan nan nan nan nan nan nan nan nan nan nan nan nan nan nan nan nan nan nan nan nan nan nan nan nan nan nan nan nan nan nan nan nan nan nan nan nan nan nan 30 30 nan nan 29 30 nan nan nan 28 28 27 25 23 23 25 27 27 27 27 26 25 25 25 25 24 23 nan nan nan 15 15 15 nan 15 nan 12 14 16 15 14 nan nan nan nan
nan nan nan nan nan nan nan nan nan nan nan nan nan nan nan nan nan nan nan nan nan nan nan nan nan nan nan nan nan nan 41 nan nan nan nan 30 28 nan nan nan nan 27 27 25 27 29 29 29 29 nan nan nan 28 28 26 26 27 28 28 28 27 28 28 28 28 28 28 27 26 24 22 19 18 18 17 16 16 nan nan nan nan nan nan nan nan nan
nan nan nan nan nan nan nan nan nan nan nan nan nan nan nan nan nan nan nan nan nan nan nan nan nan nan nan nan nan nan nan nan nan nan nan nan nan nan 31 nan nan nan nan 25 nan nan nan nan nan nan nan nan nan nan nan 29 29 28 28 30 31 32 31 31 31 31 31 30 30 29 27 25 24 23 22 21 21 22 nan nan nan nan nan nan nan nan
nan nan nan nan nan nan nan nan nan nan nan nan nan nan nan nan nan nan nan nan nan nan nan nan nan nan nan nan nan nan nan nan nan nan nan nan nan nan nan nan nan nan nan nan nan nan nan nan 29 nan nan nan nan nan nan nan nan nan nan nan nan 35 35 34 nan 35 33 33 33 32 30 29 29 28 27 25 24 25 26 nan nan nan nan nan nan nan
nan nan nan nan nan nan nan nan nan nan nan nan nan nan nan nan nan nan nan nan nan nan nan nan nan nan nan nan nan nan nan nan nan nan nan nan nan nan nan nan nan nan nan nan nan nan nan 28 30 32 nan nan nan nan nan nan nan nan nan nan nan nan nan nan nan nan nan nan nan nan 32 31 30 nan 29 28 27 27 27 28 27 26 25 nan nan nan
nan nan nan nan nan nan nan nan nan nan nan nan nan nan nan nan nan nan nan nan nan nan nan nan nan nan nan nan nan nan nan nan nan nan nan nan nan nan nan nan nan nan nan nan nan nan nan nan nan nan nan nan nan nan nan nan nan nan nan nan nan nan nan nan nan nan nan nan nan nan nan nan nan nan nan nan nan nan nan nan 29 28 29 30 27 26
nan nan nan nan nan nan nan nan nan nan nan nan nan nan nan nan nan nan nan nan nan nan nan nan nan nan nan nan nan nan nan nan nan nan nan nan nan nan nan nan nan nan nan nan nan nan nan nan nan nan nan nan nan nan nan nan nan nan nan nan nan nan nan nan nan nan nan nan nan nan nan nan nan nan nan nan 33 32 31 31 30 29 30 30 28 26
nan nan nan nan nan nan nan nan nan nan nan nan nan nan nan nan nan nan nan nan nan nan nan nan nan nan nan nan nan nan nan nan nan nan nan nan nan nan nan nan nan nan nan nan nan nan nan nan nan nan nan nan nan nan nan nan nan nan nan nan nan nan nan nan nan nan nan nan nan nan nan nan nan nan nan nan nan nan nan 31 32 32 33 33 31 29
nan nan nan nan nan nan nan nan nan nan nan nan nan nan nan nan nan nan nan nan nan nan nan nan nan nan nan nan nan nan nan nan nan nan nan nan nan nan nan nan nan nan nan nan nan nan nan nan nan nan nan nan nan nan nan nan nan nan nan nan nan nan nan nan nan nan nan nan nan nan nan nan nan nan nan nan nan nan nan 35 34 33 35 35 35 34
nan nan nan nan nan nan nan nan nan nan nan nan nan nan nan nan nan nan nan nan nan nan nan nan nan nan nan nan nan nan nan nan nan nan nan nan nan nan nan nan nan nan nan nan nan nan nan nan nan nan nan nan nan nan nan nan nan nan nan nan nan nan nan nan nan nan nan nan nan nan nan nan nan nan nan nan nan nan nan nan nan 40 38 37 37 37
nan nan nan nan nan nan nan nan nan nan nan nan nan nan nan nan nan nan nan nan nan nan nan nan nan nan nan nan nan nan nan nan nan nan nan nan nan nan nan nan nan nan nan nan nan nan nan nan nan nan nan nan nan nan nan nan nan nan nan nan nan nan nan nan nan nan nan nan nan nan nan nan nan nan nan nan nan nan nan nan nan nan nan 45 43 42
nan nan nan nan nan nan nan nan nan nan nan nan nan nan nan nan nan nan nan nan nan nan nan nan nan nan nan nan nan nan nan nan nan nan nan nan nan nan nan nan nan nan nan nan nan nan nan nan nan nan nan nan nan nan nan nan nan nan nan nan nan nan nan nan nan nan nan nan nan nan nan nan nan nan nan nan nan nan nan nan nan nan nan nan nan nan
nan nan nan nan nan nan nan nan nan nan nan nan nan nan nan nan nan nan nan nan nan nan nan nan nan nan nan nan nan nan nan nan nan nan nan nan nan nan nan nan nan nan nan nan nan nan nan nan nan nan nan nan nan nan nan nan nan nan nan nan nan nan nan nan nan nan nan nan nan nan nan nan nan nan nan nan nan nan nan nan nan nan nan nan nan nan
nan nan nan nan nan nan nan nan nan nan nan nan nan nan nan nan nan nan nan nan nan nan nan nan nan nan nan nan nan nan nan nan nan nan nan nan nan nan nan nan nan nan nan nan nan nan nan nan nan nan nan nan nan nan nan nan nan nan nan nan nan nan nan nan nan nan nan nan nan nan nan nan nan nan nan nan nan nan nan nan nan nan nan nan nan nan
nan nan nan nan nan nan nan nan nan nan nan nan nan nan nan nan nan nan nan nan nan nan nan nan nan nan nan nan nan nan nan nan nan nan nan nan nan nan nan nan nan nan nan nan nan nan nan nan nan nan nan nan nan nan nan nan nan nan nan nan nan nan nan nan nan nan nan nan nan nan nan nan nan nan nan nan nan nan nan nan nan nan nan nan nan nan
nan nan nan nan nan nan nan nan nan nan nan nan nan nan nan nan nan nan nan nan nan nan nan nan nan nan nan nan nan nan nan nan nan nan nan nan nan nan nan nan nan nan nan nan nan nan nan nan nan nan nan nan nan nan nan nan nan nan nan nan nan nan nan nan nan nan nan nan nan nan nan nan nan nan nan nan nan nan nan nan nan nan nan nan nan nan
nan nan nan nan nan nan nan nan nan nan nan nan nan nan nan nan nan nan nan nan nan nan nan nan nan nan nan nan nan nan nan nan nan nan nan nan nan nan nan nan nan nan nan nan nan nan nan nan nan nan nan nan nan nan nan nan nan nan nan nan nan nan nan nan nan nan nan nan nan nan nan nan nan nan nan nan nan nan nan nan nan nan nan nan nan nan
nan nan nan nan nan nan nan nan nan nan nan nan nan nan nan nan nan nan nan nan nan nan nan nan nan nan nan nan nan nan nan nan nan nan nan nan nan nan nan nan nan nan nan nan nan nan nan nan nan nan nan nan nan nan nan nan nan nan nan nan nan nan nan nan nan nan nan nan nan nan nan nan nan nan nan nan nan nan nan nan nan nan nan nan nan nan
nan nan nan nan nan nan nan nan nan nan nan nan nan nan nan nan nan nan nan nan nan nan nan nan nan nan nan nan nan nan nan nan nan nan nan nan nan nan nan nan nan nan nan nan nan nan nan nan nan nan nan nan nan nan nan nan nan nan nan nan nan nan nan nan nan nan nan nan nan nan nan nan nan nan nan nan nan nan nan nan nan nan nan nan nan nan
nan nan nan nan nan nan nan nan nan nan nan nan nan nan nan nan nan nan nan nan nan nan nan nan nan nan nan nan nan nan nan nan nan nan nan nan nan nan nan nan nan nan nan nan nan nan nan nan nan nan nan nan nan nan nan nan nan nan nan nan nan nan nan nan nan nan nan nan nan nan nan nan nan nan nan nan nan nan nan nan nan nan nan nan nan nan
Wind_Direction
nan nan nan nan nan nan nan nan nan nan nan nan nan nan nan nan nan nan nan nan nan nan nan nan nan nan nan nan nan nan 257 255 262 261 258 259 263 263 271 271 279 281 284 277 306 317 319 324 316 300 290 293 303 307 309 313 317 315 306 300 300 298 297 294 290 281 275 272 267 264 267 265 254 239 221 217 223 239 244 238 237 239 235 233 246 252
nan nan nan nan nan nan nan nan nan nan nan nan nan nan nan nan nan nan nan nan nan nan nan nan nan nan nan nan nan nan nan 259 261 256 257 264 265 266 271 283 283 278 263 280 289 304 316 314 319 312 304 305 311 308 309 318 321 317 308 305 296 294 295 290 286 277 267 262 265 266 263 254 246 232 230 229 234 240 239 240 243 240 232 235 245 247
nan nan nan nan nan nan nan nan nan nan nan nan nan nan nan nan nan nan nan nan nan nan nan nan nan nan nan nan nan nan nan 252 260 265 269 270 270 263 275 284 280 275 283 293 292 297 307 306 315 320 312 312 316 310 311 314 314 311 309 304 294 289 288 281 278 275 268 259 259 259 259 259 237 213 214 227 235 240 239 231 229 231 232 236 236 231
nan nan nan nan nan nan nan nan nan nan nan nan nan nan nan nan nan nan nan nan nan nan nan nan nan nan nan 210 214 213 nan 235 242 254 263 266 270 281 301 299 294 291 295 296 298 303 302 303 314 315 311 314 315 310 306 308 310 306 304 300 291 284 279 275 274 270 265 263 260 256 256 247 231 220 218 220 224 226 228 224 222 222 226 221 222 216
nan nan nan nan nan nan nan nan nan nan nan nan nan nan nan nan nan nan nan nan nan nan nan nan nan nan nan nan nan 202 214 231 234 235 242 242 259 271 264 262 279 297 292 287 294 298 304 305 315 312 305 310 316 313 307 302 304 301 300 296 291 284 277 270 272 270 266 261 254 251 243 237 228 217 217 221 206 210 215 219 219 218 214 212 214 211
nan nan nan nan nan nan nan nan nan nan nan nan nan nan nan nan nan nan nan nan nan nan nan nan nan nan nan 189 193 198 219 227 233 253 252 262 258 259 271 282 279 272 282 300 308 305 301 299 299 300 304 315 316 312 306 300 298 298 290 293 289 279 271 269 268 268 267 265 263 254 248 235 224 221 218 220 214 206 210 211 204 209 207 207 206 205
nan nan nan nan nan nan nan nan nan nan nan nan nan nan nan nan nan nan nan nan nan nan nan nan nan nan nan 198 196 196 221 239 237 237 252 260 257 256 268 283 284 288 284 268 266 277 288 293 298 299 303 311 315 309 304 300 297 294 285 293 291 277 264 261 262 264 262 253 245 243 236 231 228 225 196 192 197 205 201 209 206 201 197 201 212 207
nan nan nan nan nan nan nan nan nan nan nan nan nan nan nan nan nan nan nan nan nan nan nan nan nan nan nan nan 206 204 222 236 245 240 250 249 249 250 262 273 274 278 278 275 278 281 281 291 296 301 298 303 305 299 303 302 297 291 284 290 276 254 252 251 252 256 255 250 239 241 239 232 222 214 208 199 200 199 203 211 202 198 194 196 204 217
nan nan nan nan nan nan nan nan nan nan nan nan nan nan nan nan nan nan nan nan nan nan nan nan nan nan nan 201 212 221 231 233 244 248 247 252 248 253 265 276 274 266 271 276 281 287 289 293 290 294 296 296 293 297 303 303 297 291 285 273 252 240 244 246 241 244 242 243 240 238 233 222 205 207 210 200 202 209 206 210 200 200 196 197 200 211
nan nan nan nan nan nan nan nan nan nan nan nan nan nan nan nan nan nan nan nan nan nan nan nan nan nan nan 199 205 215 222 244 257 244 246 254 262 263 265 264 263 264 271 275 275 279 282 288 289 291 288 291 290 291 294 294 292 289 277 262 256 246 234 230 232 233 232 234 235 232 221 220 212 213 206 204 210 211 209 212 206 205 208 211 221 225
nan nan nan nan nan nan nan nan nan nan nan nan nan nan nan nan nan nan nan nan nan nan nan nan nan nan nan 202 212 229 230 237 246 238 248 253 255 249 247 253 259 263 268 272 277 278 281 284 288 289 291 290 286 288 293 290 289 285 275 271 274 274 278 278 245 225 229 242 244 242 236 230 226 219 216 213 211 215 214 218 211 213 216 218 235 245
nan nan nan nan nan nan nan nan nan nan nan nan nan nan nan nan nan nan nan nan nan nan nan nan nan nan nan 211 213 214 220 238 267 285 286 284 271 247 240 241 244 253 262 266 270 276 280 286 290 290 290 293 293 293 294 289 284 284 278 281 275 272 287 272 252 227 236 252 258 248 248 238 227 223 218 218 215 213 220 221 221 218 225 228 nan nan
nan nan nan nan nan nan nan nan nan nan nan nan nan nan nan nan nan nan nan nan nan nan nan nan nan nan 212 219 222 211 219 237 253 240 267 270 256 242 235 233 235 236 238 243 253 264 273 282 291 293 290 289 296 295 294 292 286 283 281 286 281 278 280 271 247 230 238 251 262 257 248 238 228 225 225 222 219 211 221 223 226 228 236 nan nan nan
nan nan nan nan nan nan nan nan nan nan nan nan nan nan nan nan nan nan nan nan nan nan nan nan nan 226 219 218 226 218 218 244 251 246 249 249 256 265 256 249 246 242 241 239 248 264 271 273 279 282 282 285 286 291 293 292 287 282 280 278 279 278 265 256 240 235 245 252 253 249 247 243 236 228 228 225 228 221 228 232 nan nan nan nan nan nan
nan nan nan nan nan nan nan nan nan nan nan nan nan nan nan nan nan nan nan nan nan nan nan nan nan nan 237 230 219 220 234 254 253 257 253 239 216 205 223 240 250 253 248 250 251 260 267 271 275 275 274 278 284 293 293 291 287 279 276 273 272 268 254 247 234 233 241 241 240 237 238 243 239 238 233 nan nan nan nan nan nan nan nan nan nan nan
nan nan nan nan nan nan nan nan nan nan nan nan nan nan nan nan nan nan nan nan nan nan nan 224 234 239 242 240 233 237 242 247 249 241 245 252 245 243 240 246 253 256 258 252 244 248 265 269 270 266 270 273 278 288 287 288 286 279 271 266 265 266 261 259 247 234 228 237 238 238 238 242 241 236 235 nan 236 241 nan nan nan nan nan nan nan nan
nan nan nan nan nan nan nan nan nan nan nan nan nan nan nan nan nan nan nan nan nan nan nan 231 234 236 238 242 239 239 242 242 245 242 243 241 240 244 251 257 256 256 259 254 240 244 254 255 257 258 260 257 257 262 273 279 275 271 268 264 260 258 259 263 252 244 222 230 246 240 245 245 243 246 nan 246 245 246 nan nan nan nan nan nan nan nan
nan nan nan nan nan nan nan nan nan nan nan nan nan nan nan nan nan nan nan nan nan nan 231 233 243 240 244 247 242 243 245 242 242 241 242 236 231 228 218 225 240 247 248 238 228 228 233 244 250 248 247 246 244 247 255 265 263 261 262 264 261 261 256 246 243 231 234 221 222 250 254 251 252 248 246 247 249 nan nan nan nan nan nan nan nan nan
nan nan nan nan nan nan nan nan nan nan nan nan nan nan nan nan nan nan nan nan nan nan nan nan 237 242 247 248 244 245 245 243 243 244 244 244 245 240 225 214 220 229 230 227 224 223 225 233 245 247 245 241 237 237 240 245 249 253 256 259 256 253 250 257 263 276 277 280 254 269 275 266 257 252 253 252 253 nan nan nan nan nan nan nan nan nan
nan nan nan nan nan nan nan nan nan nan nan nan nan nan nan nan nan nan nan nan nan nan nan nan 234 239 242 246 243 238 238 243 247 246 252 262 264 260 249 230 222 222 221 219 225 228 229 235 238 246 244 243 241 240 237 238 241 242 245 250 258 262 266 271 279 287 292 279 263 259 258 259 264 263 265 266 nan nan nan nan nan nan nan nan nan nan
nan nan nan nan nan nan nan nan nan nan nan nan nan nan nan nan nan nan nan nan nan nan nan nan 232 230 236 238 232 230 235 246 244 239 237 241 252 265 270 260 239 227 229 236 246 249 249 255 257 262 265 256 248 242 238 238 240 237 246 255 266 271 272 273 273 267 252 240 237 246 257 254 255 260 264 nan nan nan nan nan nan nan nan nan nan nan
nan nan nan nan nan nan nan nan nan nan nan nan nan nan nan nan nan nan nan nan nan nan nan nan nan 226 225 232 235 243 249 253 249 245 239 233 239 246 256 254 236 232 230 230 240 245 240 244 250 246 245 252 260 262 258 246 246 248 248 261 271 274 269 267 264 258 nan nan 237 240 249 252 251 264 nan nan nan nan nan nan nan nan nan nan nan nan
nan nan nan nan nan nan nan nan nan nan nan nan nan nan nan nan nan nan nan nan nan nan nan nan nan nan 230 232 243 251 249 249 254 258 258 248 243 248 253 253 249 245 248 244 245 247 245 242 243 244 248 252 255 257 255 256 255 255 259 267 275 275 262 256 257 nan nan nan 245 243 240 248 265 nan nan nan nan nan nan nan nan nan nan nan nan nan
225 nan nan nan nan nan nan nan nan nan nan nan nan nan nan nan nan nan nan nan nan nan nan nan 239 239 236 241 244 249 252 253 258 263 266 259 251 252 253 253 252 250 245 244 248 248 245 244 245 247 251 253 257 260 263 262 256 252 257 268 277 282 275 261 257 255 256 nan 255 256 263 252 nan nan nan nan nan nan nan nan nan nan nan nan nan nan
nan nan nan nan nan nan nan nan nan nan nan nan nan nan nan nan nan nan nan nan nan nan nan nan nan nan nan 244 246 247 248 252 255 255 258 262 253 251 250 246 241 237 235 243 251 254 252 251 251 253 255 258 260 262 261 262 262 260 263 271 274 271 266 254 252 260 nan nan 258 251 nan nan nan nan nan nan nan nan nan nan nan nan nan nan nan nan
nan nan nan nan nan nan nan nan nan nan nan nan nan nan nan nan nan nan nan nan nan nan nan nan 248 243 254 255 257 254 256 256 253 255 255 258 254 nan 244 235 227 229 237 245 247 247 248 252 253 254 254 254 257 261 260 260 261 nan nan nan nan nan 266 259 250 nan nan nan nan nan nan nan nan nan nan nan nan nan nan nan nan nan nan nan nan nan
nan nan nan nan nan nan nan nan nan nan nan nan nan nan nan nan nan nan nan nan nan nan nan nan nan 263 262 264 264 261 261 264 265 263 260 254 nan nan nan 240 238 245 249 247 242 238 240 244 249 253 251 249 251 254 255 252 246 245 246 248 nan 241 249 nan nan nan nan nan nan nan nan nan 253 nan nan nan nan nan nan nan nan nan nan nan nan nan
nan nan nan nan nan nan nan nan nan nan nan nan nan nan nan nan nan nan nan nan nan nan nan nan nan 261 261 263 266 265 262 259 258 256 252 250 254 257 256 254 256 257 251 243 237 239 247 248 243 239 239 242 246 247 246 245 248 249 248 nan 242 243 247 249 247 243 242 249 nan nan nan nan nan nan nan nan nan nan nan nan nan nan nan nan nan nan
nan nan nan nan nan nan nan nan nan nan nan nan nan nan nan nan nan nan nan nan nan nan nan nan 253 255 259 258 258 251 250 254 253 250 245 249 251 252 252 253 255 253 246 240 nan nan nan 246 241 239 238 236 240 244 242 240 242 244 nan nan 242 nan 244 nan 247 247 246 250 251 241 nan nan 252 nan nan nan nan nan nan nan nan nan nan nan nan nan
nan nan nan nan nan nan nan nan nan nan nan nan nan nan nan nan nan nan nan nan nan nan nan 258 256 nan 251 253 nan 255 252 251 249 244 245 249 246 246 251 253 nan nan nan nan nan nan nan nan 242 242 241 235 233 234 236 236 234 234 235 237 240 nan nan nan 250 255 nan 243 243 nan 235 248 nan nan nan nan nan nan nan nan nan nan nan nan nan nan
nan nan nan nan nan nan nan nan nan nan nan nan nan nan nan nan nan nan nan nan nan nan nan nan nan nan nan nan 261 257 nan 253 247 241 240 247 248 nan nan nan nan nan nan nan nan 240 240 241 nan 242 239 232 229 231 232 235 238 239 236 235 237 239 235 241 nan 250 251 247 nan nan nan nan nan nan nan 243 241 nan 263 277 263 279 nan nan nan nan
nan nan nan nan nan nan nan nan nan nan nan nan nan nan nan nan nan nan nan nan nan nan nan nan nan nan nan nan nan nan nan nan nan nan nan nan nan nan nan nan nan 243 243 nan nan 237 237 nan nan nan 235 231 229 230 234 239 239 237 234 233 234 235 235 237 237 239 239 239 nan nan nan 243 247 249 nan 249 nan 258 242 242 250 262 nan nan nan nan
nan nan nan nan nan nan nan nan nan nan nan nan nan nan nan nan nan nan nan nan nan nan nan nan nan nan nan nan nan nan 254 nan nan nan nan 251 243 nan nan nan nan 239 233 233 234 235 235 236 237 nan nan nan 233 235 234 237 235 233 232 230 228 230 231 234 235 236 236 236 235 234 234 233 234 236 239 242 245 nan nan nan nan nan nan nan nan nan
nan nan nan nan nan nan nan nan nan nan nan nan nan nan nan nan nan nan nan nan nan nan nan nan nan nan nan nan nan nan nan nan nan nan nan nan nan nan 242 nan nan nan nan 234 nan nan nan nan nan nan nan nan nan nan nan 232 231 228 228 230 228 229 228 231 232 233 234 234 234 236 237 237 234 232 232 237 244 250 nan nan nan nan nan nan nan nan
nan nan nan nan nan nan nan nan nan nan nan nan nan nan nan nan nan nan nan nan nan nan nan nan nan nan nan nan nan nan nan nan nan nan nan nan nan nan nan nan nan nan nan nan nan nan nan nan 238 nan nan nan nan nan nan nan nan nan nan nan nan 227 231 231 nan 232 233 236 238 239 239 240 239 238 238 240 244 250 253 nan nan nan nan nan nan nan
nan nan nan nan nan nan nan nan nan nan nan nan nan nan nan nan nan nan nan nan nan nan nan nan nan nan nan nan nan nan nan nan nan nan nan nan nan nan nan nan nan nan nan nan nan nan nan 233 235 236 nan nan nan nan nan nan nan nan nan nan nan nan nan nan nan nan nan nan nan nan 238 242 243 nan 245 246 249 254 258 260 264 264 263 nan nan nan
nan nan nan nan nan nan nan nan nan nan nan nan nan nan nan nan nan nan nan nan nan nan nan nan nan nan nan nan nan nan nan nan nan nan nan nan nan nan nan nan nan nan nan nan nan nan nan nan nan nan nan nan nan nan nan nan nan nan nan nan nan nan nan nan nan nan nan nan nan nan nan nan nan nan nan nan nan nan nan nan 258 260 262 265 266 271
nan nan nan nan nan nan nan nan nan nan nan nan nan nan nan nan nan nan nan nan nan nan nan nan nan nan nan nan nan nan nan nan nan nan nan nan nan nan nan nan nan nan nan nan nan nan nan nan nan nan nan nan nan nan nan nan nan nan nan nan nan nan nan nan nan nan nan nan nan nan nan nan nan nan nan nan 251 253 253 254 255 258 259 264 263 266
nan nan nan nan nan nan nan nan nan nan nan nan nan nan nan nan nan nan nan nan nan nan nan nan nan nan nan nan nan nan nan nan nan nan nan nan nan nan nan nan nan nan nan nan nan nan nan nan nan nan nan nan nan nan nan nan nan nan nan nan nan nan nan nan nan nan nan nan nan nan nan nan nan nan nan nan nan nan nan 256 260 258 255 252 254 259
nan nan nan nan nan nan nan nan nan nan nan nan nan nan nan nan nan nan nan nan nan nan nan nan nan nan nan nan nan nan nan nan nan nan nan nan nan nan nan nan nan nan nan nan nan nan nan nan nan nan nan nan nan nan nan nan nan nan nan nan nan nan nan nan nan nan nan nan nan nan nan nan nan nan nan nan nan nan nan 255 256 259 261 259 257 260
nan nan nan nan nan nan nan nan nan nan nan nan nan nan nan nan nan nan nan nan nan nan nan nan nan nan nan nan nan nan nan nan nan nan nan nan nan nan nan nan nan nan nan nan nan nan nan nan nan nan nan nan nan nan nan nan nan nan nan nan nan nan nan nan nan nan nan nan nan nan nan nan nan nan nan nan nan nan nan nan nan 254 255 257 260 265
nan nan nan nan nan nan nan nan nan nan nan nan nan nan nan nan nan nan nan nan nan nan nan nan nan nan nan nan nan nan nan nan nan nan nan nan nan nan nan nan nan nan nan nan nan nan nan nan nan nan nan nan nan nan nan nan nan nan nan nan nan nan nan nan nan nan nan nan nan nan nan nan nan nan nan nan nan nan nan nan nan nan nan 256 260 261
nan nan nan nan nan nan nan nan nan nan nan nan nan nan nan nan nan nan nan nan nan nan nan nan nan nan nan nan nan nan nan nan nan nan nan nan nan nan nan nan nan nan nan nan nan nan nan nan nan nan nan nan nan nan nan nan nan nan nan nan nan nan nan nan nan nan nan nan nan nan nan nan nan nan nan nan nan nan nan nan nan nan nan nan nan nan
nan nan nan nan nan nan nan nan nan nan nan nan nan nan nan nan nan nan nan nan nan nan nan nan nan nan nan nan nan nan nan nan nan nan nan nan nan nan nan nan nan nan nan nan nan nan nan nan nan nan nan nan nan nan nan nan nan nan nan nan nan nan nan nan nan nan nan nan nan nan nan nan nan nan nan nan nan nan nan nan nan nan nan nan nan nan
nan nan nan nan nan nan nan nan nan nan nan nan nan nan nan nan nan nan nan nan nan nan nan nan nan nan nan nan nan nan nan nan nan nan nan nan nan nan nan nan nan nan nan nan nan nan nan nan nan nan nan nan nan nan nan nan nan nan nan nan nan nan nan nan nan nan nan nan nan nan nan nan nan nan nan nan nan nan nan nan nan nan nan nan nan nan
nan nan nan nan nan nan nan nan nan nan nan nan nan nan nan nan nan nan nan nan nan nan nan nan nan nan nan nan nan nan nan nan nan nan nan nan nan nan nan nan nan nan nan nan nan nan nan nan nan nan nan nan nan nan nan nan nan nan nan nan nan nan nan nan nan nan nan nan nan nan nan nan nan nan nan nan nan nan nan nan nan nan nan nan nan nan
nan nan nan nan nan nan nan nan nan nan nan nan nan nan nan nan nan nan nan nan nan nan nan nan nan nan nan nan nan nan nan nan nan nan nan nan nan nan nan nan nan nan nan nan nan nan nan nan nan nan nan nan nan nan nan nan nan nan nan nan nan nan nan nan nan nan nan nan nan nan nan nan nan nan nan nan nan nan nan nan nan nan nan nan nan nan
nan nan nan nan nan nan nan nan nan nan nan nan nan nan nan nan nan nan nan nan nan nan nan nan nan nan nan nan nan nan nan nan nan nan nan nan nan nan nan nan nan nan nan nan nan nan nan nan nan nan nan nan nan nan nan nan nan nan nan nan nan nan nan nan nan nan nan nan nan nan nan nan nan nan nan nan nan nan nan nan nan nan nan nan nan nan
nan nan nan nan nan nan nan nan nan nan nan nan nan nan nan nan nan nan nan nan nan nan nan nan nan nan nan nan nan nan nan nan nan nan nan nan nan nan nan nan nan nan nan nan nan nan nan nan nan nan nan nan nan nan nan nan nan nan nan nan nan nan nan nan nan nan nan nan nan nan nan nan nan nan nan nan nan nan nan nan nan nan nan nan nan nan
nan nan nan nan nan nan nan nan nan nan nan nan nan nan nan nan nan nan nan nan nan nan nan nan nan nan nan nan nan nan nan nan nan nan nan nan nan nan nan nan nan nan nan nan nan nan nan nan nan nan nan nan nan nan nan nan nan nan nan nan nan nan nan nan nan nan nan nan nan nan nan nan nan nan nan nan nan nan nan nan nan nan nan nan nan nan
nan nan nan nan nan nan nan nan nan nan nan nan nan nan nan nan nan nan nan nan nan nan nan nan nan nan nan nan nan nan nan nan nan nan nan nan nan nan nan nan nan nan nan nan nan nan nan nan nan nan nan nan nan nan nan nan nan nan nan nan nan nan nan nan nan nan nan nan nan nan nan nan nan nan nan nan nan nan nan nan nan nan nan nan nan nan